CZ-2D DEB (43096 NORAD) Tracking and Keplerian Element Data

This shows tracking and keplerian element data for the satellite.

Feedback or suggestion? Click here.




ElementValue
Catalog43096
NameCZ-2D DEB
Epoch Orbit388
Epoch Day21.15334905
Epoch Year2018
RAAN99.3193
Inclination97.4811
Eccentricity0.0017692
Argument of Perigee183.7679
Mean Anonmoly176.3461
Mean Motion15.25245464
Decay Rate2.247E-05
L11 43096U 17084C 18021.15334905 .00002247 00000-0 91992-4 0 9993
L22 43096 97.4811 99.3193 0017692 183.7679 176.3461 15.25245464 3889

Live tracking and technical data element details for CZ-2D DEB (NORAD 43096). CZ-2D DEB can be tracked NOW for your location showing map with azimuth and elevation plus other details from your city location.

Track the satellite on the map from your city or location and see movement details for azimuth, elevation, latitude, longitude, range, height, and movement on the map or in text.







IsCatalogInMostPopularTable: catalog: 43096, numindb: 152
Update: records affected: 1



GetName: 43096 CZ-2D DEB

Hit Count: updated at: Fri, 16 Nov 2018 11:18:53 GMT